Regional Weather Roundup
Issued by NWS Green Bay, WI

Home | Current Version | Previous Version | Graphics & Text | Print | Product List | Glossary Off
Versions: 1 2 3 4 5 6 7 8 9 10 11 12 13 14 15 16 17 18 19 20 21 22 23 24 25 26 27 28 29 30 31 32 33 34 35 36 37 38 39 40 41 42 43 44 45 46 47 48 49 50

680
ASUS43 KGRB 231211
RWRGRB

NORTH-CENTRAL AND NORTHEAST WISCONSIN REGIONAL WEATHER ROUNDUP
NATIONAL WEATHER SERVICE GREEN BAY WI
700 AM CDT FRI JUN 23 2017

WIZ005-009-010>012-018-019-231300-
NORTH CENTRAL WISCONSIN

CITY           SKY/WX    TMP DP  RH WIND       PRES   REMARKS
IRONWOOD       SUNNY     59  50  72 W9        29.65S
MANITOWISH WTR SUNNY     55  55 100 W3        29.67R
ARBOR VITAE    SUNNY     57  56  97 CALM      29.67R
EAGLE RIVER    SUNNY     56  56 100 CALM      29.67S
LAND O LAKES   SUNNY     56  56 100 CALM      29.67F
RHINELANDER    SUNNY     58  57  97 SW5       29.68S
PHILLIPS       SUNNY     56  55  93 SW3       29.68R
ANTIGO         SUNNY     57  57 100 CALM      29.70F
TOMAHAWK       NOT AVBL
MERRILL        SUNNY     58  58 100 CALM      29.70S
$$

WIZ013-073-231300-
NORTHEAST WISCONSIN

CITY           SKY/WX    TMP DP  RH WIND       PRES   REMARKS
IRON MOUNTAIN  SUNNY     60  55  83 CALM      29.64S
MARINETTE      CLOUDY    63  60  90 W3        29.65S
OCONTO         CLOUDY    63  60  93 W3        29.64F
$$

WIZ017-030-035>037-045-231300-
CENTRAL WISCONSIN

CITY           SKY/WX    TMP DP  RH WIND       PRES   REMARKS
MEDFORD        SUNNY     58  56  94 W6        29.70F
WAUSAU         SUNNY     60  58  92 CALM      29.68F
MOSINEE        MOSUNNY   59  59 100 SW5       29.71F
MARSHFIELD     SUNNY     60  58  92 SW5       29.70F
WISC RAPIDS    MOSUNNY   62  61  96 W3        29.71F
STEVENS POINT  SUNNY     60  60 100 CALM      29.70F
WAUPACA        CLOUDY    64  64  97 W7        29.70F
SHAWANO        CLOUDY    64  62  91 W7        29.68S
CLINTONVILLE   CLOUDY    63  61  94 W8        29.68F
WAUTOMA        CLOUDY    62  62 100 W7        29.71S
$$

WIZ038-039-048-051-231300-
FOX VALLEY

CITY           SKY/WX    TMP DP  RH WIND       PRES   REMARKS
NWS GREEN BAY  CLOUDY    64  64 100 CALM      29.67F
APPLETON       MOSUNNY   63  63 100 W8        29.68R
OSHKOSH        CLOUDY    65  63  93 W8        29.68S
FOND DU LAC    MOSUNNY   65  61  87 W8        29.69S
$$

WIZ022-050-052-231300-
EAST CENTRAL WISCONSIN

CITY           SKY/WX    TMP DP  RH WIND       PRES   REMARKS
EPHRAIM        FAIR      62  61  95 W7        29.63F
WASHINGTON ISL CLOUDY    63  61  93 W6        29.63S
STURGEON BAY     N/A     64  61  90 W8          N/A
MANITOWOC      CLOUDY    66  63  90 W10       29.66F
SHEBOYGAN      CLOUDY    66  64  93 NW10      29.66S
$$

LMZ563-521-522-541>543-231300-
LAKESHORE

STATION/POSITION TIME  TEMP    WIND        PRES    VSBY  WAVE
                       AIR SEA DIR/SP/G                  HT/PER
                 (UTC) (F)     (DEG/KT/KT) (MB)    (MI)  (FT/S)
SHEBOYGAN LKSHOR 1200   66     300/ 12/ 14 1003.7S
KEWAUNEE LKSHORE 1142   65     280/  5/  6 1003.8F
NORTHPORT PIER   1140   64     270/  5/  6 1003.4S
N MID LAKE BUOY  1150   59 56  270/  6/  8 1003.2F         1/ 5
S GREEN BAY BUOY 1130   65     270/  8/ 10 1004.4R
CHAMBERS ISLAND  1140   64     240/  4/  7 1003.7R
MENOMINEE LKSHOR 1142          230/  5/  6 1003.3R
$$




USA.gov is the U.S. government's official web portal to all federal, state and local government web resources and services.